SHT3G EGCC-EGLL

Flight info

Callsign SHT3G
Flight time 0h 28m
Altitude 19000
Route SANBA1Y SANBA N859 HON HON2H
Aircraft A320/M-SDE3FGHIJ1RWXY/S

Departure

Time 2026-05-05 07:54
Airport Manchester Airport (EGCC)

Arrival

Time 2026-05-05 08:23
Airport London Heathrow Airport (EGLL)
Time Latitude Longitude Altitude Speed Heading
2026-05-05 07:35 53.36923 -2.28747 233 ft 0 kts 135°
2026-05-05 07:40 53.36930 -2.28759 234 ft 4 kts 135°
2026-05-05 07:40 53.36945 -2.28781 236 ft 2 kts 156°
2026-05-05 07:40 53.36956 -2.28786 234 ft 2 kts 203°
2026-05-05 07:40 53.36966 -2.28777 234 ft 2 kts 220°
2026-05-05 07:41 53.36974 -2.28765 238 ft 2 kts 224°
2026-05-05 07:41 53.36982 -2.28752 236 ft 2 kts 225°
2026-05-05 07:41 53.36985 -2.28747 236 ft 0 kts 225°
2026-05-05 07:43 53.36970 -2.28771 235 ft 9 kts 224°
2026-05-05 07:43 53.36910 -2.28872 233 ft 14 kts 225°
2026-05-05 07:44 53.36833 -2.28999 233 ft 17 kts 222°
2026-05-05 07:44 53.36752 -2.29047 233 ft 7 kts 171°
2026-05-05 07:44 53.36712 -2.28986 233 ft 10 kts 134°
2026-05-05 07:44 53.36656 -2.28903 233 ft 12 kts 156°
2026-05-05 07:45 53.36589 -2.28805 233 ft 14 kts 113°
2026-05-05 07:45 53.36526 -2.28659 233 ft 17 kts 135°
2026-05-05 07:45 53.36436 -2.28504 233 ft 20 kts 134°
2026-05-05 07:45 53.36357 -2.28337 233 ft 18 kts 135°
2026-05-05 07:46 53.36260 -2.28175 233 ft 21 kts 135°
2026-05-05 07:46 53.36150 -2.27988 233 ft 24 kts 134°
2026-05-05 07:46 53.36041 -2.27830 233 ft 18 kts 149°
2026-05-05 07:46 53.35945 -2.27726 233 ft 14 kts 175°
2026-05-05 07:47 53.35839 -2.27735 233 ft 17 kts 184°
2026-05-05 07:47 53.35764 -2.27662 233 ft 14 kts 154°
2026-05-05 07:47 53.35667 -2.27589 233 ft 17 kts 142°
2026-05-05 07:47 53.35600 -2.27497 233 ft 0 kts 142°
2026-05-05 07:48 53.35600 -2.27496 233 ft 1 kts 142°
2026-05-05 07:48 53.35573 -2.27461 233 ft 9 kts 142°
2026-05-05 07:48 53.35504 -2.27367 237 ft 14 kts 140°
2026-05-05 07:48 53.35425 -2.27259 237 ft 18 kts 141°
2026-05-05 07:49 53.35326 -2.27191 233 ft 12 kts 188°
2026-05-05 07:49 53.35234 -2.27222 233 ft 15 kts 191°
2026-05-05 07:49 53.35207 -2.27232 235 ft 0 kts 191°
2026-05-05 07:50 53.35184 -2.27239 233 ft 7 kts 191°
2026-05-05 07:50 53.35127 -2.27258 233 ft 10 kts 191°
2026-05-05 07:50 53.35052 -2.27284 233 ft 12 kts 191°
2026-05-05 07:51 53.35003 -2.27331 233 ft 0 kts 231°
2026-05-05 07:53 53.35003 -2.27333 233 ft 2 kts 231°
2026-05-05 07:53 53.34884 -2.27579 232 ft 63 kts 231°
2026-05-05 07:54 53.34473 -2.28431 230 ft 122 kts 231°
2026-05-05 07:54 53.33838 -2.29735 324 ft 158 kts 231°
2026-05-05 07:54 53.33144 -2.31147 1012 ft 157 kts 233°
2026-05-05 07:54 53.32473 -2.32562 1657 ft 160 kts 235°
2026-05-05 07:55 53.31878 -2.34248 1968 ft 178 kts 265°
2026-05-05 07:55 53.32152 -2.36280 2270 ft 191 kts 306°
2026-05-05 07:55 53.32922 -2.38263 2599 ft 218 kts 296°
2026-05-05 07:55 53.33211 -2.40903 3042 ft 248 kts 268°
2026-05-05 07:56 53.32627 -2.43705 3830 ft 265 kts 237°
2026-05-05 07:56 53.31201 -2.45709 4672 ft 277 kts 205°
2026-05-05 07:56 53.29299 -2.46079 5597 ft 280 kts 170°
2026-05-05 07:56 53.27405 -2.45287 6594 ft 282 kts 160°
2026-05-05 07:57 53.25668 -2.43836 7485 ft 284 kts 150°
2026-05-05 07:57 53.23934 -2.42223 8378 ft 288 kts 152°
2026-05-05 07:57 53.22156 -2.40621 9266 ft 291 kts 153°
2026-05-05 07:57 53.20357 -2.39031 10126 ft 295 kts 154°
2026-05-05 07:58 53.18474 -2.37387 10470 ft 317 kts 154°
2026-05-05 07:58 53.16449 -2.35624 10740 ft 338 kts 154°
2026-05-05 07:58 53.14330 -2.33776 11325 ft 346 kts 154°
2026-05-05 07:58 53.12177 -2.31894 12030 ft 351 kts 154°
2026-05-05 07:59 53.10003 -2.29994 12743 ft 355 kts 154°
2026-05-05 07:59 53.07802 -2.28072 13457 ft 359 kts 154°
2026-05-05 07:59 53.05575 -2.26131 14129 ft 363 kts 154°
2026-05-05 07:59 53.03357 -2.24202 14764 ft 366 kts 154°
2026-05-05 08:00 53.01088 -2.22231 15424 ft 369 kts 154°
2026-05-05 08:00 52.98805 -2.20249 16077 ft 371 kts 155°
2026-05-05 08:00 52.96506 -2.18254 16736 ft 373 kts 155°
2026-05-05 08:00 52.94192 -2.16250 17383 ft 376 kts 155°
2026-05-05 08:01 52.91865 -2.14238 18044 ft 378 kts 155°
2026-05-05 08:01 52.89520 -2.12217 18666 ft 380 kts 155°
2026-05-05 08:01 52.87192 -2.10216 18952 ft 382 kts 155°
2026-05-05 08:01 52.84824 -2.08177 19038 ft 388 kts 155°
2026-05-05 08:02 52.82397 -2.06092 19049 ft 394 kts 155°
2026-05-05 08:02 52.79957 -2.03992 19047 ft 396 kts 155°
2026-05-05 08:02 52.77514 -2.01888 19047 ft 396 kts 155°
2026-05-05 08:02 52.75067 -1.99786 19053 ft 396 kts 155°
2026-05-05 08:03 52.72621 -1.97691 19053 ft 395 kts 155°
2026-05-05 08:03 52.70175 -1.95602 19054 ft 395 kts 155°
2026-05-05 08:03 52.67732 -1.93518 19058 ft 395 kts 155°
2026-05-05 08:03 52.65325 -1.91464 19036 ft 395 kts 155°
2026-05-05 08:04 52.62879 -1.89380 19036 ft 395 kts 155°
2026-05-05 08:04 52.60437 -1.87304 19038 ft 395 kts 154°
2026-05-05 08:04 52.57990 -1.85225 19038 ft 395 kts 154°
2026-05-05 08:04 52.55552 -1.83155 19037 ft 395 kts 154°
2026-05-05 08:05 52.53107 -1.81078 19039 ft 395 kts 154°
2026-05-05 08:05 52.50666 -1.79005 19045 ft 395 kts 154°
2026-05-05 08:05 52.48221 -1.76931 19043 ft 395 kts 154°
2026-05-05 08:05 52.45814 -1.74898 19050 ft 395 kts 154°
2026-05-05 08:06 52.43369 -1.72839 19048 ft 394 kts 154°
2026-05-05 08:06 52.40924 -1.70791 19046 ft 394 kts 154°
2026-05-05 08:06 52.38479 -1.68748 19046 ft 394 kts 154°
2026-05-05 08:06 52.36073 -1.66614 19048 ft 395 kts 149°
2026-05-05 08:07 52.33885 -1.63873 19046 ft 396 kts 140°
2026-05-05 08:07 52.31812 -1.60906 19049 ft 396 kts 141°
2026-05-05 08:07 52.29752 -1.57986 19028 ft 396 kts 141°
2026-05-05 08:07 52.27665 -1.55045 19026 ft 396 kts 141°
2026-05-05 08:08 52.25577 -1.52113 19020 ft 395 kts 141°
2026-05-05 08:08 52.23488 -1.49192 19023 ft 395 kts 141°
2026-05-05 08:08 52.21399 -1.46273 19022 ft 395 kts 141°
2026-05-05 08:08 52.19312 -1.43356 19021 ft 395 kts 141°
2026-05-05 08:09 52.17227 -1.40442 19024 ft 394 kts 141°
2026-05-05 08:09 52.15144 -1.37531 19023 ft 394 kts 141°
2026-05-05 08:09 52.13062 -1.34629 19024 ft 394 kts 141°
2026-05-05 08:09 52.11009 -1.31768 19025 ft 393 kts 141°
2026-05-05 08:10 52.08953 -1.28904 18924 ft 381 kts 140°
2026-05-05 08:10 52.06950 -1.26118 18362 ft 379 kts 140°
2026-05-05 08:10 52.04940 -1.23330 17694 ft 378 kts 140°
2026-05-05 08:10 52.02950 -1.20576 16834 ft 374 kts 140°
2026-05-05 08:11 52.00986 -1.17859 16348 ft 369 kts 140°
2026-05-05 08:11 51.99043 -1.15176 15847 ft 365 kts 140°
2026-05-05 08:11 51.97145 -1.12551 15347 ft 362 kts 140°
2026-05-05 08:11 51.95212 -1.09882 14803 ft 359 kts 140°
2026-05-05 08:12 51.93273 -1.07333 13888 ft 367 kts 147°
2026-05-05 08:12 51.91012 -1.05483 12862 ft 361 kts 156°
2026-05-05 08:12 51.88725 -1.03854 11874 ft 356 kts 156°
2026-05-05 08:12 51.86481 -1.02269 11254 ft 343 kts 156°
2026-05-05 08:13 51.84376 -1.00785 11121 ft 317 kts 156°
2026-05-05 08:13 51.82400 -0.99394 10745 ft 304 kts 156°
2026-05-05 08:13 51.80474 -0.98046 10188 ft 299 kts 156°
2026-05-05 08:13 51.78563 -0.96711 9672 ft 297 kts 156°
2026-05-05 08:14 51.76706 -0.95413 9036 ft 294 kts 156°
2026-05-05 08:14 51.74832 -0.94103 8410 ft 292 kts 156°
2026-05-05 08:14 51.72977 -0.92802 7767 ft 291 kts 156°
2026-05-05 08:14 51.71132 -0.91510 7221 ft 287 kts 155°
2026-05-05 08:15 51.69316 -0.90238 6690 ft 283 kts 155°
2026-05-05 08:15 51.67520 -0.88982 6159 ft 280 kts 155°
2026-05-05 08:15 51.65741 -0.87741 5622 ft 277 kts 155°
2026-05-05 08:15 51.63971 -0.86507 5143 ft 277 kts 155°
2026-05-05 08:16 51.62230 -0.85292 4650 ft 276 kts 155°
2026-05-05 08:16 51.60466 -0.84060 4126 ft 276 kts 155°
2026-05-05 08:16 51.58708 -0.82837 3716 ft 273 kts 154°
2026-05-05 08:16 51.57026 -0.81672 3628 ft 253 kts 154°
2026-05-05 08:17 51.55465 -0.80593 3531 ft 235 kts 154°
2026-05-05 08:17 51.54020 -0.79594 3435 ft 218 kts 154°
2026-05-05 08:17 51.52651 -0.78647 3331 ft 210 kts 154°
2026-05-05 08:17 51.51334 -0.77735 3265 ft 200 kts 154°
2026-05-05 08:18 51.50113 -0.76892 3158 ft 187 kts 153°
2026-05-05 08:18 51.48996 -0.75944 3075 ft 177 kts 138°
2026-05-05 08:18 51.48180 -0.74536 3004 ft 169 kts 117°
2026-05-05 08:18 51.47725 -0.72828 2997 ft 165 kts 98°
2026-05-05 08:19 51.47633 -0.71026 2870 ft 161 kts 85°
2026-05-05 08:19 51.47644 -0.69225 2680 ft 161 kts 85°
2026-05-05 08:19 51.47655 -0.67445 2482 ft 159 kts 85°
2026-05-05 08:19 51.47665 -0.65668 2263 ft 159 kts 85°
2026-05-05 08:20 51.47675 -0.63888 2047 ft 159 kts 85°
2026-05-05 08:20 51.47684 -0.62125 1833 ft 158 kts 85°
2026-05-05 08:20 51.47694 -0.60383 1614 ft 158 kts 85°
2026-05-05 08:20 51.47703 -0.58604 1392 ft 159 kts 86°
2026-05-05 08:21 51.47711 -0.56831 1184 ft 158 kts 86°
2026-05-05 08:21 51.47716 -0.55687 1054 ft 149 kts 86°
2026-05-05 08:21 51.47723 -0.54080 822 ft 140 kts 86°
2026-05-05 08:21 51.47729 -0.52527 626 ft 138 kts 86°
2026-05-05 08:22 51.47738 -0.50990 442 ft 138 kts 86°
2026-05-05 08:22 51.47748 -0.49452 245 ft 137 kts 86°
2026-05-05 08:22 51.47752 -0.47916 90 ft 134 kts 88°
2026-05-05 08:22 51.47759 -0.46598 93 ft 93 kts 90°
2026-05-05 08:23 51.47760 -0.45967 85 ft 41 kts 89°
2026-05-05 08:23 51.47763 -0.45590 85 ft 22 kts 94°
2026-05-05 08:23 51.47654 -0.45471 86 ft 20 kts 178°
2026-05-05 08:23 51.47595 -0.45562 88 ft 12 kts 272°
2026-05-05 08:24 51.47596 -0.45715 87 ft 15 kts 270°
2026-05-05 08:24 51.47595 -0.45902 88 ft 18 kts 269°
2026-05-05 08:24 51.47594 -0.46122 88 ft 21 kts 270°
2026-05-05 08:24 51.47594 -0.46373 87 ft 24 kts 270°
2026-05-05 08:25 51.47593 -0.46654 87 ft 26 kts 269°
2026-05-05 08:25 51.47584 -0.46908 90 ft 20 kts 268°
2026-05-05 08:25 51.47582 -0.47150 91 ft 23 kts 270°
2026-05-05 08:25 51.47582 -0.47422 89 ft 26 kts 270°
2026-05-05 08:26 51.47581 -0.47725 90 ft 28 kts 269°
2026-05-05 08:26 51.47580 -0.48023 89 ft 22 kts 269°
2026-05-05 08:26 51.47578 -0.48253 88 ft 20 kts 271°
2026-05-05 08:26 51.47574 -0.48443 88 ft 14 kts 253°
2026-05-05 08:27 51.47481 -0.48478 87 ft 16 kts 180°
2026-05-05 08:27 51.47362 -0.48478 87 ft 18 kts 180°
2026-05-05 08:27 51.47285 -0.48478 87 ft 5 kts 183°
2026-05-05 08:27 51.47272 -0.48519 89 ft 5 kts 267°
2026-05-05 08:28 51.47270 -0.48567 89 ft 3 kts 267°
2026-05-05 08:28 51.47271 -0.48589 90 ft 0 kts 270°